Showing default

SAUDISAT 5B, 43833

Orbit data source: Space-Track

SAUDISAT 5B, 43833 is a payload satellite owned by KACST (SA) in SSO that was launched on Fri, 07 Dec 2018 UTC via a CHANG ZHENG 2D launch vehicle from the Jiuquan Satellite Launch Center, China (JSC). Payload-class satellites include a variety of spacecraft equipped with specific instruments for various scientific and technological missions. These include communications satellites like Starlink; space stations such as the ISS; scientific satellites like the Hubble; Earth observation satellites from companies like Planet Labs, Umbra, and HawkEye 360; GPS; miniature CubeSats for education and research; and military/defense satellites.

Loading next visibility...
Identifier
43833, 2018-102C
Orbit
SSO
Last TLE update
5 hours ago
Origin
Manufacturer
KACST
Mission
Operational Civil Technology
Bus & Motor
SAUDISAT, Unknown motor
Mass
425 kg wet, 425 kg dry
Launch date (UTC)
2018-12-07 (7 years ago)
Launch vehicle
CHANG ZHENG 2D
Launch site
Jiuquan Satellite Launch Center, China (JSC)
Object type
Payload
Rocket body
Debris
Shape & HBR
Box, 2 m
Radar Cross Section
2.500 m², Large (>1 m²)

Expand to show TLE details & history

TLE from 5 hours ago
0 SAUDISAT 5B
1 43833U 18102C   25182.18277048  .00003881  00000-0  16443-3 0  9999
2 43833  97.3646 248.0705 0009890 300.5179  59.5081 15.23700942362265
Epoch: 2025-07-01T04:23Z
TLE epoch observation values (Epoch: 2025-07-01T04:23:11.369Z)
Latitude
-0.00007°
Longitude
-97.20875°
Altitude
494.341 km
Speed
7.619 km/s
True Right ascension
16h 32m 16s
True Declination
0° 00' 00"
Sunlit
Object was in full shadow at epoch
Visualization orbit readout
Latitude
81.34559°
Longitude
-154.61776°
Altitude
513.763 km
Speed
7.611 km/s
Apparent Right ascension
09h 42m 11s
Apparent Declination
26° 00' 26"
Sunlit
Object is in daylight
Visualization observer readout
Local Sidereal Time
21:07:35
Azimuth
351.516° N
Elevation
-23.585°
Doppler factor
1
Orbital elements
Apogee altitude
498.442 km
Perigee altitude
484.854 km
Semi-major axis
6,869.785 km
Eccentricity
0.00099
Inclination
97.3646°
RAAN
248.0705°
Arg. of periapsis
300.5179°
True anomaly
Unknown
Mean anomaly
59.5081°
Eccentric anomaly
Unknown
Mean motion
3.81179 °/min
Orbital period
94.44 mins
BSTAR
0.00016443
Loading maneuver chart data...
Loading SW <> Apogee altitude chart data...
Loading historical data...
Loading historical data...
Loading historical data...
Loading historical data...
Loading historical data...
Loading historical data...
Loading historical data...

SAUDISAT 5B Visibility forecast

Observer location: undefined°, undefined°

Span
Click to sort rows by Start time (UTC) header in descending order
Start Az.
Max El. time (UTC)
Max El. Az.
Max El.
End time (UTC)
End Az.
6 mins2025-07-01 17:33:17.426Z359.257° N2025-07-01 17:36:17.426Z280.523° WNW38.422°2025-07-01 17:39:17.426Z210.24° SW
5 mins2025-07-02 04:10:17.426Z142.986° SSE2025-07-02 04:12:17.426Z86.108° E37.513°2025-07-02 04:15:17.426Z1.967° NNE
|